EW7948 Weather Reports


time (UTC)temp
C
wind
direction
speed
KPH
gust
KPH
rain 1hr
cm
rain 24hr
cm
rain mn
cm
humidity
%
barometer
mb
20260506170047 13 26 22.5 30.6 0.00 0.05 0.05 38 1011.3
20260506164544 12 45 22.5 30.6 0.00 0.05 0.05 40 1011.1
20260506163044 12 5 17.7 29.0 0.00 0.05 0.05 43 1010.8
20260506161539 12 25 17.7 27.4 0.00 0.05 0.05 45 1010.6
20260506160037 11 24 16.1 22.5 0.00 0.05 0.05 48 1010.5
20260506154536 11 39 14.5 22.5 0.00 0.05 0.05 51 1010.3
20260506153014 10 19 14.5 24.1 0.00 0.05 0.05 52 1010.1
20260506151521 10 17 16.1 20.9 0.00 0.05 0.05 55 1009.7
20260506150010 9 21 14.5 24.1 0.00 0.05 0.05 55 1009.3
20260506144508 9 17 12.9 20.9 0.00 0.05 0.05 58 1009.3
20260506143007 8 38 19.3 27.4 0.00 0.05 0.05 58 1009.1
20260506141505 8 24 19.3 29.0 0.00 0.05 0.05 60 1009.0
20260506140003 8 36 17.7 25.7 0.00 0.05 0.05 66 1008.6
20260506134501 7 5 14.5 25.7 0.00 0.05 0.05 70 1008.5
20260506133104 7 30 19.3 29.0 0.03 0.05 0.05 72 1008.3
20260506131556 6 5 12.9 20.9 0.03 0.05 0.05 77 1008.0
20260506130055 6 19 17.7 29.0 0.05 0.05 0.05 78 1007.7
20260506124555 6 360 17.7 35.4 0.05 0.05 0.05 76 1007.4
20260506123048 6 32 17.7 33.8 0.03 0.03 0.03 78 1006.9
20260506121545 7 16 22.5 41.8 0.03 0.03 0.03 77 1006.3
20260506120045 7 26 30.6 53.1 0.00 0.00 0.00 73 1006.0
20260506114536 11 24 17.7 30.6 0.00 0.00 0.00 63 1005.2
20260506113040 11 5 8.0 14.5 0.00 0.00 0.00 67 1004.4
20260506111530 11 340 4.8 9.7 0.00 0.00 0.00 60 1004.3
20260506110033 11 340 3.2 6.4 0.00 0.00 0.00 58 1004.1
20260506104525 11 340 1.6 8.0 0.00 0.00 0.00 57 1003.7
20260506103030 12 341 3.2 8.0 0.00 0.00 0.00 58 1003.4
20260506101528 12 5 4.8 12.9 0.00 0.00 0.00 58 1003.1
20260506100029 11 331 4.8 12.9 0.00 0.00 0.00 58 1003.1
20260506094519 11 320 11.3 17.7 0.00 0.00 0.00 59 1002.9
20260506093018 11 348 4.8 9.7 0.00 0.00 0.00 59 1002.8
20260506091515 11 22 4.8 9.7 0.00 0.00 0.00 60 1002.6
20260506090013 10 32 0.0 3.2 0.00 0.00 0.00 60 1002.6
20260506084510 11 32 3.2 6.4 0.00 0.00 0.00 59 1002.5
20260506083010 11 32 0.0 3.2 0.00 0.00 0.00 55 1002.4
20260506081506 11 32 1.6 6.4 0.00 0.00 0.00 56 1002.6
20260506073001 11 40 3.2 6.4 0.00 0.00 0.00 54 1002.4
20260506071559 12 49 1.6 9.7 0.00 0.00 0.00 52 1002.4
20260506061554 12 69 4.8 9.7 0.00 0.00 0.00 52 1001.9
20260506044540 15 16 12.9 20.9 0.00 0.00 0.00 48 1001.5
20260506043038 15 360 9.7 17.7 0.00 0.00 0.00 46 1001.3
20260506041539 15 19 11.3 17.7 0.00 0.00 0.00 47 1001.0
20260506040039 15 22 8.0 16.1 0.00 0.00 0.00 47 1000.6
20260506034543 15 17 9.7 16.1 0.00 0.00 0.00 47 1000.5
20260506033043 15 46 8.0 14.5 0.00 0.00 0.00 48 1000.2
20260506031542 15 46 6.4 12.9 0.00 0.00 0.00 48 999.9
20260506030043 15 32 6.4 9.7 0.00 0.00 0.00 48 999.7
20260506024540 15 15 6.4 14.5 0.00 0.00 0.00 47 999.6
20260506023053 15 360 9.7 16.1 0.00 0.00 0.00 46 999.2
20260506021545 15 360 14.5 22.5 0.00 0.00 0.00 45 999.0
20260506020040 16 12 11.3 22.5 0.00 0.00 0.00 44 998.8
20260506014540 16 9 12.9 22.5 0.00 0.00 0.00 45 998.8
20260506013137 16 340 12.9 24.1 0.00 0.00 0.00 46 998.6
20260506011509 16 344 17.7 30.6 0.00 0.00 0.00 46 998.3
20260506010042 16 29 17.7 33.8 0.00 0.00 0.00 45 998.1
20260506004506 16 44 24.1 33.8 0.00 0.00 0.00 44 998.5
20260506003025 16 5 24.1 35.4 0.00 0.00 0.00 41 998.6
20260506001546 17 5 20.9 33.8 0.00 0.00 0.00 41 998.3
20260506000041 17 350 17.7 41.8 0.00 0.00 0.00 41 998.1
20260505234601 17 16 29.0 45.1 0.00 0.00 0.00 39 997.5
20260505233042 19 17 33.8 59.5 0.00 0.00 0.00 33 996.9
20260505231539 22 30 30.6 43.5 0.00 0.00 0.00 24 996.4
20260505230038 23 322 8.0 16.1 0.00 0.00 0.00 12 996.2
20260505224537 24 253 4.8 16.1 0.00 0.00 0.00 11 996.2
20260505223037 25 240 6.4 16.1 0.00 0.00 0.00 10 996.4
20260505221531 25 146 3.2 14.5 0.00 0.00 0.00 11 996.5
20260505220030 24 341 9.7 16.1 0.00 0.00 0.00 12 996.8
20260505214556 25 255 9.7 20.9 0.00 0.00 0.00 13 997.0
20260505213026 25 200 4.8 22.5 0.00 0.00 0.00 11 997.1
20260505211524 24 215 9.7 19.3 0.00 0.00 0.00 12 997.4
20260505210020 23 221 6.4 22.5 0.00 0.00 0.00 12 997.6
20260505204520 23 302 4.8 27.4 0.00 0.00 0.00 13 997.9
20260505203031 23 159 11.3 24.1 0.00 0.00 0.00 13 998.0
20260505201523 23 136 12.9 33.8 0.00 0.00 0.00 11 998.1
20260505200013 23 221 12.9 25.7 0.00 0.00 0.00 15 998.4
20260505194513 22 148 8.0 19.3 0.00 0.00 0.00 19 998.3
20260505193010 22 255 4.8 19.3 0.00 0.00 0.00 20 998.5
20260505191509 22 210 9.7 16.1 0.00 0.00 0.00 19 998.7
20260505190008 22 309 6.4 16.1 0.00 0.00 0.00 23 998.8
20260505184506 22 227 4.8 24.1 0.00 0.00 0.00 21 998.9
20260505183013 22 171 9.7 27.4 0.00 0.00 0.00 24 999.1
20260505181504 22 171 11.3 17.7 0.00 0.00 0.00 22 999.3
20260505180001 21 230 9.7 19.3 0.00 0.00 0.00 21 999.5
20260505174605 21 176 8.0 19.3 0.00 0.00 0.00 22 999.7
20260505173055 20 209 9.7 27.4 0.00 0.00 0.00 24 999.9
20260505171553 20 242 12.9 27.4 0.00 0.00 0.00 23 999.8